Location: Izdebno
(52.6670°N, 16.2170°E)
Time: 04:20:52
(UTC+02:00)

Transit 2A - Pass Details

Date: 29 February 2024
Orbit: 596 x 956 km, 66.7° (Epoch: 21 April)

Event Time Altitude Azimuth Distance (km) Brightness Sun altitude
Rises 00:16:10 0° 315° (NW) 2,902 - -45.2°
Reaches altitude 10° 00:19:03 10° 335° (NNW) 2,035 - -45.1°
Maximum altitude 00:22:12 18° 19° (NNE) 1,627 - -45.1°
Drops below altitude 10° 00:25:30 10° 62° (ENE) 2,156 - -45.1°
Sets 00:28:40 0° 81° (E) 3,147 - -45.0°
